#timestamp,LO_Frequency,Hit,StdDev 
1549134015.8,286047000.2,N
1549134035.6,286047000.0,N
1549134055.4,286047000.7,N
1549134075.3,286047000.1,N
1549134095.1,286047002.7,Y
1549134115.8,286047002.4,P
1549134135.7,286047001.5,N
1549134155.5,286047004.1,P
1549134175.4,286047003.4,N
1549134195.2,286047003.4,N
1549134215.0,286047003.3,N
1549134215.9,286047003.3,N
1549134235.8,286047002.9,N
1549134255.6,286047003.1,N
1549134305.5,286047003.8,E
1549134315.4,286047000.1,N
1549134335.2,286047001.1,P
1549134355.1,286047001.1,N
1549134356.0,286047001.1,N
1549134375.8,286046998.8,N
1549134395.6,286046999.2,N
1549134415.5,286046999.0,N
1549134435.3,286046996.5,Y
1549134455.2,286046998.9,P
1549134475.0,286047000.7,N
1549134475.9,286047000.7,N
1549134495.7,286046998.5,N
1549134515.6,286047000.6,N
1549134535.4,286047000.5,N
1549134555.3,286047000.0,N
1549134575.1,286047002.7,Y
1549134576.0,286047002.7,P
1549134595.8,286046999.8,N
1549134615.7,286046999.7,N
1549134635.5,286047000.8,N
1549134655.4,286047000.6,N
1549134675.2,286046999.9,N
1549134695.0,286047002.8,N
1549134695.9,286047002.8,N
1549134715.8,286047002.6,N
1549134735.6,286047000.0,N
1549134755.4,286047002.4,N
1549134775.3,286047002.2,N
1549134795.1,286047002.2,N
1549134815.9,286046999.9,N
1549134835.7,286047002.7,N
1549134855.5,286047002.7,N
1549134875.4,286047002.0,N
1549134895.2,286047001.5,N
1549134915.0,286047001.8,N
1549134915.9,286047001.8,N
1549134935.8,286047002.8,N
1549134955.6,286047002.1,N
1549134975.5,286047002.1,N
1549134995.3,286047000.5,N
1549135015.1,286046999.8,N
1549135035.9,286047000.2,N
1549135055.7,286047000.6,N
1549135075.5,286047002.7,N
1549135095.4,286047002.6,N
1549135115.2,286047000.2,N
1549135135.1,286047000.2,N
1549135136.0,286047000.2,N
1549135155.8,286047000.1,N
1549135175.6,286047001.7,N
1549135195.5,286047001.3,N
1549135215.3,286047003.8,Y
1549135235.2,286047003.8,P
1549135255.9,286047005.5,P
1549135275.7,286047005.8,P
1549135295.6,286047005.6,Y
1549135315.4,286046999.8,P
1549135335.2,286047002.7,N
1549135355.1,286047002.7,N
1549135356.0,286047002.7,N
1549135375.8,286047000.0,N
1549135395.7,286047000.5,N
1549135415.5,286047000.9,N
1549135435.3,286046999.4,N
1549135455.2,286046996.7,N
1549135475.0,286046996.5,N
1549135475.9,286046996.5,N
1549135495.8,286046996.7,N
1549135515.6,286046999.5,N
1549135535.4,286046999.0,N
1549135555.3,286046999.0,N
1549135575.1,286046999.1,N
1549135595.8,286046999.3,N
1549135615.7,286046998.6,N
1549135635.5,286046999.6,N
1549135655.4,286046999.1,N
1549135675.2,286046997.2,N
1549135695.0,286046995.4,N
1549135695.9,286046995.4,N
1549135715.8,286046998.0,N
1549135735.6,286046994.9,N
1549135755.5,286046995.7,N
1549135775.3,286046995.4,N
1549135795.1,286046995.1,N
1549135815.9,286046997.3,N
1549135835.7,286046997.4,N
1549135855.5,286046999.5,N
1549135875.4,286046996.7,N
1549135895.2,286046998.9,N
1549135915.1,286046999.0,N
1549135916.0,286046999.0,N
1549135935.8,286047000.1,N
1549135955.6,286047000.1,N
1549135975.5,286046999.4,N
1549135995.3,286046999.4,N
1549136015.1,286046998.8,N
1549136035.9,286046998.8,N
1549136055.7,286047001.2,N
1549136075.6,286046998.5,N
1549136095.4,286046997.1,N
1549136115.2,286046996.6,N
1549136135.1,286046997.0,N
1549136136.0,286046997.0,N
1549136155.8,286046996.6,N
1549136175.7,286046996.8,N
1549136195.5,286046996.8,N
1549136215.3,286046996.5,N
1549136235.2,286046997.1,N
1549136255.0,286046997.4,N
1549136255.9,286046997.4,N
1549136275.7,286046996.7,N
1549136295.6,286046997.1,N
1549136315.4,286046996.7,N
1549136335.3,286046997.0,N
1549136355.1,286046997.6,N
1549136375.8,286046994.9,Y
1549136395.7,286046997.4,P
1549136415.5,286046996.4,P
1549136435.4,286046994.3,P
1549136455.2,286046994.0,Y
1549136475.0,286046998.0,P
1549136475.9,286046998.0,N
1549136495.8,286046997.5,P
1549136515.6,286046996.0,Y
1549136535.5,286046998.3,P
1549136555.3,286046998.9,N
1549136575.1,286046998.8,N
1549136595.9,286046998.8,N
1549136615.7,286046998.8,N
1549136635.5,286046999.4,N
1549136655.4,286046997.4,Y
1549136675.2,286046996.6,P
1549136695.1,286046998.7,N
1549136696.0,286046998.7,N
1549136715.8,286047001.1,N
1549136735.6,286046998.5,N
1549136755.5,286047000.6,N
1549136775.3,286047000.7,N
1549136795.1,286047001.1,N
1549136815.9,286047001.2,N
1549136835.7,286047001.1,N
1549136855.6,286047000.4,N
1549136875.4,286047000.1,N
1549136895.2,286047002.1,N
1549136915.1,286047003.8,N
1549136916.0,286047003.8,N
1549136935.8,286047003.6,N
1549136955.7,286047004.1,N
1549136975.5,286047001.3,N
1549136995.3,286047001.4,N
1549137015.2,286047002.3,N
1549137035.9,286046999.7,N
1549137055.7,286046999.9,N
1549137075.6,286046998.3,N
1549137095.4,286046999.4,N
1549137115.3,286046999.5,N
1549137135.1,286046999.1,N
1549137136.0,286046999.1,N
1549137155.8,286046997.3,N
1549137175.7,286046997.4,N
1549137195.5,286046996.8,N
1549137215.3,286046996.6,N
1549137235.2,286046996.9,N
1549137255.0,286046998.7,N
1549137255.9,286046998.7,N
1549137275.8,286046998.6,N
1549137295.6,286047000.9,N
1549137315.4,286047000.1,N
1549137335.3,286047002.0,N
1549137355.1,286047003.6,N
1549137375.8,286047003.7,N
1549137395.7,286047003.7,N
1549137415.5,286047003.3,N
1549137435.4,286047005.5,N
1549137455.2,286047004.8,N
1549137475.0,286047005.3,N
1549137475.9,286047005.3,N
1549137495.8,286047004.9,N
1549137515.6,286047005.0,N
1549137535.5,286047004.7,N
1549137555.3,286047004.9,N
1549137575.1,286047004.8,N
1549137595.9,286047005.9,N
